Location: Anjeux
(47.8815°N, 6.2076°E)
Time: 03:40:05
(UTC+00:00)

DX 1 - Visible Passes

Search period start: 29 November 2021 00:00
Search period end: 09 December 2021 00:00
Orbit: 619 x 629 km, 98.4° (Epoch: 28 November)

Date Brightness Start Highest point End Pass type
(mag) Time Alt. Az. Time Alt. Az. Time Alt. Az.
29 Nov ? 06:01:04 10° SE 06:04:58 33° ENE 06:08:54 10° N visible
30 Nov ? 06:19:14 10° SE 06:23:26 48° ENE 06:27:40 10° N visible
01 Dec ? 05:05:49 10° ENE 05:06:37 10° NE 05:07:24 10° NE visible
02 Dec ? 05:22:27 10° E 05:24:55 15° ENE 05:27:24 10° NNE visible
03 Dec ? 05:40:00 10° ESE 05:43:17 21° ENE 05:46:34 10° NNE visible
04 Dec ? 05:57:53 10° SE 06:01:41 30° ENE 06:05:29 10° N visible
05 Dec ? 06:15:59 10° SE 06:20:08 43° ENE 06:24:18 10° N visible
07 Dec ? 05:19:28 10° E 05:21:39 14° ENE 05:23:50 10° NNE visible
08 Dec ? 05:36:53 10° ESE 05:39:59 19° ENE 05:43:06 10° NNE visible
